Overview Statistics Trail Chart Weather Telemetry Raw packets
 

This is the latest recevied weather packets stored in our database for station/object KB1RMA-4. If no packets are shown the sender has not sent any weather packets the latest 10 day(s).

<< 36 37 38 39 40 41 42 >>
Time Temp. Humidity Pressure Rain* Wind** Luminosity Snow
1788386458 18.89° C 85% 1021.7 hPa 0 mm - 51 W/m² -
1788386154 19.44° C 85% 1021.7 hPa 0 mm - 53 W/m² -
1788385849 19.44° C 85% 1021.9 hPa 0 mm - 57 W/m² -
1788385543 19.44° C 84% 1021.7 hPa 0 mm - 62 W/m² -
1788385243 19.44° C 83% 1021.8 hPa 0 mm - 65 W/m² -
1788384938 20° C 83% 1021.8 hPa 0 mm - 68 W/m² -
1788384637 20° C 82% 1021.5 hPa 0 mm - 75 W/m² -
1788384333 20° C 82% 1021.5 hPa 0 mm - 98 W/m² -
1788384029 20° C 81% 1021.6 hPa 0 mm - 144 W/m² -
1788383725 20° C 81% 1021.8 hPa 0 mm - 191 W/m² -
1788383420 20° C 81% 1021.8 hPa 0 mm - 184 W/m² -
1788383120 20° C 81% 1021.7 hPa 0 mm - 115 W/m² -
1788382819 21.11° C 79% 1021.3 hPa 0 mm - 108 W/m² -
1788382514 20.56° C 79% 1021.6 hPa 0 mm - 194 W/m² -
1788382209 21.11° C 78% 1021.6 hPa 0 mm - 177 W/m² -
1788381909 20.56° C 79% 1022 hPa 0 mm - 229 W/m² -
1788381604 20.56° C 79% 1022.1 hPa 0 mm - 256 W/m² -
1788381300 20.56° C 80% 1022 hPa 0 mm - 285 W/m² -
1788380999 20° C 80% 1022.1 hPa 0 mm - 246 W/m² -
1788380695 20° C 80% 1021.9 hPa 0 mm - 404 W/m² -
1788380392 20° C 79% 1021.8 hPa 0 mm - 192 W/m² -
1788380092 20° C 79% 1021.9 hPa 0 mm - 214 W/m² -
1788379792 20° C 80% 1022.1 hPa 0 mm - 242 W/m² -
1788379487 20.56° C 79% 1022.2 hPa 0 mm - 204 W/m² -
1788379183 20.56° C 79% 1022.3 hPa 0 mm - 203 W/m² -

* Rain latest hour (hover to see other rain measurements)
** Current wind speed in m/s (hover to see current wind gust speed)